Location: Saint-Hippolyte
(43.6394°N, 4.7559°E)
Time: 16:05:54
(UTC+00:00)

Cosmos 1992 Rocket - Pass Details

Date: 24 October 2020
Orbit: 759 x 765 km, 74.0° (Epoch: 24 November)

Event Time Altitude Azimuth Distance (km) Brightness Sun altitude
Rises 19:02:29 0° 198° (SSW) 3,206 7.3 -25.9°
Reaches altitude 10° 19:04:50 10° 199° (SSW) 2,284 6.5 -26.3°
Enters shadow 19:09:13 65° 199° (SSW) 837 4.1 -27.1°
